ION SCV004 ELYSIAN ELEONORA

operational
NORAD ID: 50993 Int'l Des: 2022-002 Owner: DORBIT Country: I
LEOCIRCULARRETROGRADESSO

ION SCV004 ELYSIAN ELEONORAについて

説明を読み込み中...

リアルタイム位置

3D地球を読み込み中...

次回通過

高度履歴

Altitude vs Time

uPlot chart will show altitude changes over time

軌道要素

1 50993U 22002K 26062.60388051 .00007237 00000-0 25719-3 0 9995
2 50993 97.2978 122.2583 0007872 22.8779 337.2811 15.29276096229153
Epoch: Mar 3, 2026 • Age: 32 hours

現在のステータス

高度 482.4 km
速度 7.63 km/s
衛星直下点 -22.04°S, 151.24°W
打ち上げ日 Jan 13, 2022
運用期間 4.1 years
タイプ other

技術仕様

分類 Payload
質量 150.00 kg
乾燥質量 150.00 kg
総質量 220.00 kg
長さ 0.40 m
直径 0.40 m
スパン 0.40 m
形状 Box
製造者 DORBIT
バスタイプ ION-SC
フェーズステータス In Orbit
所有者/国 DORBIT/I

大規模コンステレーション

Loading constellations...